Time,TemperatureF,DewpointF,PressureIn,WindDirection,WindDirectionDegrees,WindSpeedMPH,WindSpeedGustMPH,Humidity,HourlyPrecipIn,Conditions,Clouds,dailyrainin,SoftwareType,DateUTC
2013-08-29 00:28:00,73.0,69.0,-100.00,WNW,300,2.0,4.0,90,0.00,,,-99.99,,2013-08-29 04:28:00,
2013-08-29 00:54:00,71.0,69.0,-100.00,North,10,1.0,4.0,93,0.00,,,-99.99,,2013-08-29 04:54:00,
2013-08-29 01:23:00,71.0,69.0,-100.00,NE,55,1.0,3.0,92,0.00,,,-99.99,,2013-08-29 05:23:00,
2013-08-29 01:52:00,71.0,69.0,-100.00,NW,325,0.0,4.0,94,0.00,,,-99.99,,2013-08-29 05:52:00,
2013-08-29 02:22:00,70.0,69.0,-100.00,NW,315,1.0,2.0,95,0.00,,,-99.99,,2013-08-29 06:22:00,
2013-08-29 02:52:00,69.0,68.0,-100.00,NNW,335,1.0,3.0,96,0.00,,,-99.99,,2013-08-29 06:52:00,
2013-08-29 03:22:00,69.0,68.0,-100.00,NW,305,0.0,1.0,97,0.00,,,-99.99,,2013-08-29 07:22:00,
2013-08-29 03:53:00,69.0,68.0,-100.00,North,350,1.0,3.0,95,0.00,,,-99.99,,2013-08-29 07:53:00,
2013-08-29 04:02:00,69.0,68.0,-100.00,North,350,1.0,3.0,95,0.00,,,-99.99,,2013-08-29 08:02:00,
2013-08-29 04:22:00,68.0,67.0,-100.00,SE,130,0.0,2.0,96,0.00,,,-99.99,,2013-08-29 08:22:00,
2013-08-29 04:32:00,68.0,67.0,-100.00,SE,130,0.0,2.0,96,0.00,,,-99.99,,2013-08-29 08:32:00,
2013-08-29 04:52:00,68.0,67.0,-100.00,South,190,1.0,1.0,97,0.00,,,-99.99,,2013-08-29 08:52:00,
2013-08-29 05:22:00,69.0,68.0,-100.00,North,10,2.0,3.0,97,0.00,,,-99.99,,2013-08-29 09:22:00,
2013-08-29 05:55:00,70.0,68.0,-100.00,NNE,20,3.0,6.0,95,0.00,,,-99.99,,2013-08-29 09:55:00,
2013-08-29 06:24:00,70.0,68.0,-100.00,NNE,20,4.0,6.0,95,0.00,,,-99.99,,2013-08-29 10:24:00,
2013-08-29 06:53:00,70.0,69.0,-100.00,NNE,15,2.0,4.0,95,0.00,,,-99.99,,2013-08-29 10:53:00,
2013-08-29 07:12:00,70.0,69.0,-100.00,North,0,0.0,3.0,95,0.00,,,-99.99,,2013-08-29 11:12:00,
2013-08-29 07:22:00,71.0,69.0,-100.00,North,10,2.0,4.0,94,0.00,,,-99.99,,2013-08-29 11:22:00,
2013-08-29 07:52:00,71.0,69.0,-100.00,NNE,15,2.0,3.0,94,0.00,,,-99.99,,2013-08-29 11:52:00,
2013-08-29 08:22:00,71.0,69.0,-100.00,NE,45,2.0,3.0,94,0.00,,,-99.99,,2013-08-29 12:22:00,
2013-08-29 08:52:00,71.0,69.0,-100.00,North,5,1.0,3.0,94,0.00,,,-99.99,,2013-08-29 12:52:00,
2013-08-29 09:02:00,71.0,69.0,-100.00,North,5,1.0,3.0,94,0.00,,,-99.99,,2013-08-29 13:02:00,
2013-08-29 09:22:00,72.0,69.0,-100.00,NE,50,1.0,3.0,93,0.00,,,-99.99,,2013-08-29 13:22:00,
2013-08-29 09:52:00,73.0,69.0,-100.00,NNE,15,1.0,3.0,89,0.00,,,-99.99,,2013-08-29 13:52:00,
2013-08-29 10:02:00,73.0,69.0,-100.00,NNE,15,1.0,3.0,89,0.00,,,-99.99,,2013-08-29 14:02:00,
2013-08-29 10:22:00,73.0,70.0,-100.00,ENE,60,2.0,4.0,89,0.00,,,-99.99,,2013-08-29 14:22:00,
2013-08-29 10:42:00,74.0,70.0,-100.00,NE,40,2.0,5.0,87,0.00,,,-99.99,,2013-08-29 14:42:00,
2013-08-29 10:52:00,74.0,70.0,-100.00,NE,35,4.0,6.0,86,0.00,,,-99.99,,2013-08-29 14:52:00,
2013-08-29 11:22:00,75.0,70.0,-100.00,ENE,60,3.0,7.0,85,0.00,,,-99.99,,2013-08-29 15:22:00,
2013-08-29 11:53:00,76.0,70.0,-100.00,NNE,15,2.0,6.0,80,0.00,,,-99.99,,2013-08-29 15:53:00,
2013-08-29 12:24:00,76.0,69.0,-100.00,ENE,70,4.0,7.0,79,0.00,,,-99.99,,2013-08-29 16:24:00,
2013-08-29 12:53:00,77.0,69.0,-100.00,NNE,25,2.0,8.0,77,0.00,,,-99.99,,2013-08-29 16:53:00,
2013-08-29 13:23:00,77.0,70.0,-100.00,ENE,65,4.0,7.0,78,0.00,,,-99.99,,2013-08-29 17:23:00,
2013-08-29 13:52:00,78.0,70.0,-100.00,East,85,6.0,7.0,75,0.00,,,-99.99,,2013-08-29 17:52:00,
2013-08-29 14:02:00,78.0,70.0,-100.00,East,85,6.0,7.0,75,0.00,,,-99.99,,2013-08-29 18:02:00,
2013-08-29 14:22:00,79.0,70.0,-100.00,East,90,4.0,7.0,72,0.00,,,-99.99,,2013-08-29 18:22:00,
2013-08-29 14:52:00,79.0,70.0,-100.00,East,95,3.0,6.0,73,0.00,,,-99.99,,2013-08-29 18:52:00,
2013-08-29 15:22:00,81.0,70.0,-100.00,ESE,115,4.0,7.0,69,0.00,,,-99.99,,2013-08-29 19:22:00,
2013-08-29 15:52:00,82.0,69.0,-100.00,East,90,3.0,7.0,66,0.00,,,-99.99,,2013-08-29 19:52:00,
2013-08-29 16:22:00,82.0,68.0,-100.00,ESE,105,1.0,7.0,61,0.00,,,-99.99,,2013-08-29 20:22:00,
2013-08-29 16:32:00,82.0,68.0,-100.00,ESE,105,1.0,7.0,61,0.00,,,-99.99,,2013-08-29 20:32:00,
2013-08-29 16:52:00,84.0,69.0,-100.00,NE,45,3.0,6.0,61,0.00,,,-99.99,,2013-08-29 20:52:00,
2013-08-29 17:22:00,83.0,69.0,-100.00,NE,35,2.0,6.0,62,0.00,,,-99.99,,2013-08-29 21:22:00,
2013-08-29 17:54:00,84.0,69.0,-100.00,ENE,65,2.0,6.0,61,0.00,,,-99.99,,2013-08-29 21:54:00,
2013-08-29 18:24:00,83.0,69.0,-100.00,NW,310,2.0,4.0,61,0.00,,,-99.99,,2013-08-29 22:24:00,
2013-08-29 18:43:00,83.0,69.0,-100.00,NE,35,2.0,5.0,62,0.00,,,-99.99,,2013-08-29 22:43:00,
2013-08-29 18:53:00,83.0,69.0,-100.00,NE,45,1.0,4.0,63,0.00,,,-99.99,,2013-08-29 22:53:00,
2013-08-29 19:22:00,82.0,70.0,-100.00,NE,45,2.0,4.0,67,0.00,,,-99.99,,2013-08-29 23:22:00,
2013-08-29 19:33:00,82.0,70.0,-100.00,NE,45,2.0,4.0,67,0.00,,,-99.99,,2013-08-29 23:33:00,
2013-08-29 19:53:00,80.0,70.0,-100.00,NE,40,2.0,3.0,70,0.00,,,-99.99,,2013-08-29 23:53:00,
2013-08-29 20:02:00,80.0,70.0,-100.00,NE,40,2.0,3.0,70,0.00,,,-99.99,,2013-08-30 00:02:00,
2013-08-29 20:22:00,79.0,70.0,-100.00,ENE,65,1.0,3.0,72,0.00,,,-99.99,,2013-08-30 00:22:00,
2013-08-29 20:52:00,77.0,69.0,-100.00,NNW,340,0.0,2.0,77,0.00,,,-99.99,,2013-08-30 00:52:00,
2013-08-29 21:22:00,75.0,70.0,-100.00,NNW,340,1.0,2.0,83,0.00,,,-99.99,,2013-08-30 01:22:00,
2013-08-29 21:52:00,74.0,70.0,-100.00,ESE,105,0.0,1.0,86,0.00,,,-99.99,,2013-08-30 01:52:00,
2013-08-29 22:02:00,74.0,70.0,-100.00,ESE,105,0.0,1.0,86,0.00,,,-99.99,,2013-08-30 02:02:00,
2013-08-29 22:22:00,73.0,70.0,-100.00,NW,325,0.0,0.0,90,0.00,,,-99.99,,2013-08-30 02:22:00,
2013-08-29 22:52:00,71.0,69.0,-100.00,NNE,25,0.0,2.0,94,0.00,,,-99.99,,2013-08-30 02:52:00,
2013-08-29 23:22:00,70.0,69.0,-100.00,West,280,1.0,2.0,95,0.00,,,-99.99,,2013-08-30 03:22:00,
2013-08-29 23:55:00,69.0,68.0,-100.00,NW,305,0.0,1.0,96,0.00,,,-99.99,,2013-08-30 03:55:00,